| time (UTC) | temp F | wind direction | speed knots | gust knots | rain 1hr in | rain 24hr in | rain mn in | humidity % | barometer mb |
| 20260504214827 | 68 | 261 | 6.1 | 10.4 | 0.00 | 0.00 | 0.00 | 35 | 1004.7 |
| 20260504214322 | 68 | 263 | 4.3 | 10.4 | 0.00 | 0.00 | 0.00 | 36 | 1004.8 |
| 20260504213819 | 68 | 290 | 5.2 | 14.8 | 0.00 | 0.00 | 0.00 | 35 | 1004.7 |
| 20260504213313 | 68 | 262 | 6.1 | 14.8 | 0.00 | 0.00 | 0.00 | 35 | 1004.7 |
| 20260504212828 | 68 | 274 | 5.2 | 17.4 | 0.00 | 0.00 | 0.00 | 35 | 1004.7 |
| 20260504212322 | 68 | 240 | 8.7 | 17.4 | 0.00 | 0.00 | 0.00 | 35 | 1004.6 |
| 20260504211837 | 68 | 223 | 8.7 | 13.9 | 0.00 | 0.00 | 0.00 | 35 | 1004.7 |
| 20260504211331 | 68 | 290 | 6.1 | 11.3 | 0.00 | 0.00 | 0.00 | 36 | 1004.7 |
| 20260504210825 | 68 | 223 | 5.2 | 13.0 | 0.00 | 0.00 | 0.00 | 35 | 1004.7 |
| 20260504210319 | 68 | 264 | 4.3 | 18.2 | 0.00 | 0.00 | 0.00 | 36 | 1004.6 |
| 20260504205818 | 68 | 253 | 9.6 | 18.2 | 0.00 | 0.00 | 0.00 | 35 | 1004.6 |
| 20260504205313 | 68 | 228 | 5.2 | 13.0 | 0.00 | 0.00 | 0.00 | 35 | 1004.6 |
| 20260504204826 | 68 | 287 | 7.8 | 17.4 | 0.00 | 0.00 | 0.00 | 35 | 1004.6 |
| 20260504204321 | 68 | 255 | 5.2 | 17.4 | 0.00 | 0.00 | 0.00 | 35 | 1004.7 |
| 20260504203816 | 68 | 280 | 7.0 | 14.8 | 0.00 | 0.00 | 0.00 | 34 | 1004.6 |
| 20260504203350 | 69 | 271 | 4.3 | 10.4 | 0.00 | 0.00 | 0.00 | 34 | 1004.6 |
| 20260504202824 | 69 | 299 | 6.1 | 13.0 | 0.00 | 0.00 | 0.00 | 35 | 1004.5 |
| 20260504202318 | 68 | 306 | 7.0 | 15.6 | 0.00 | 0.00 | 0.00 | 34 | 1004.5 |
| 20260504201816 | 68 | 240 | 10.4 | 15.6 | 0.00 | 0.00 | 0.00 | 35 | 1004.5 |
| 20260504201330 | 68 | 230 | 7.8 | 19.1 | 0.00 | 0.00 | 0.00 | 35 | 1004.6 |
| 20260504200825 | 68 | 228 | 8.7 | 19.1 | 0.00 | 0.00 | 0.00 | 34 | 1004.6 |
| 20260504200320 | 68 | 256 | 10.4 | 16.5 | 0.00 | 0.00 | 0.00 | 34 | 1004.6 |
| 20260504195815 | 68 | 276 | 7.8 | 17.4 | 0.00 | 0.00 | 0.00 | 35 | 1004.9 |
| 20260504195330 | 68 | 228 | 8.7 | 17.4 | 0.00 | 0.00 | 0.00 | 35 | 1004.8 |
| 20260504194824 | 68 | 254 | 9.6 | 15.6 | 0.00 | 0.00 | 0.00 | 36 | 1004.8 |
| 20260504194319 | 67 | 239 | 5.2 | 14.8 | 0.00 | 0.00 | 0.00 | 37 | 1004.9 |
| 20260504193817 | 67 | 260 | 7.0 | 14.8 | 0.00 | 0.00 | 0.00 | 36 | 1004.8 |
| 20260504193313 | 68 | 245 | 5.2 | 14.8 | 0.00 | 0.00 | 0.00 | 36 | 1004.9 |
| 20260504192826 | 68 | 277 | 8.7 | 15.6 | 0.00 | 0.00 | 0.00 | 36 | 1004.9 |
| 20260504192321 | 68 | 287 | 9.6 | 15.6 | 0.00 | 0.00 | 0.00 | 36 | 1005.0 |
| 20260504191815 | 68 | 231 | 9.6 | 19.1 | 0.00 | 0.00 | 0.00 | 36 | 1004.9 |
| 20260504191331 | 68 | 262 | 8.7 | 19.1 | 0.00 | 0.00 | 0.00 | 36 | 1005.0 |
| 20260504190845 | 68 | 239 | 6.1 | 15.6 | 0.00 | 0.00 | 0.00 | 36 | 1005.0 |
| 20260504190340 | 68 | 290 | 6.1 | 20.9 | 0.00 | 0.00 | 0.00 | 37 | 1005.0 |
| 20260504185818 | 67 | 247 | 6.1 | 14.8 | 0.00 | 0.00 | 0.00 | 38 | 1005.0 |
| 20260504185313 | 67 | 274 | 8.7 | 14.8 | 0.00 | 0.00 | 0.00 | 37 | 1005.1 |
| 20260504184849 | 66 | 268 | 6.1 | 14.8 | 0.00 | 0.00 | 0.00 | 39 | 1005.0 |
| 20260504184323 | 66 | 287 | 7.8 | 15.6 | 0.00 | 0.00 | 0.00 | 39 | 1005.1 |
| 20260504183819 | 65 | 275 | 7.8 | 15.6 | 0.00 | 0.00 | 0.00 | 39 | 1005.2 |
| 20260504183314 | 65 | 265 | 4.3 | 13.9 | 0.00 | 0.00 | 0.00 | 40 | 1005.3 |
| 20260504182810 | 64 | 243 | 8.7 | 15.6 | 0.00 | 0.00 | 0.00 | 40 | 1005.3 |
| 20260504182325 | 63 | 253 | 2.6 | 15.6 | 0.00 | 0.00 | 0.00 | 42 | 1005.4 |
| 20260504181839 | 63 | 265 | 2.6 | 9.6 | 0.00 | 0.00 | 0.00 | 42 | 1005.5 |
| 20260504181317 | 63 | 252 | 3.5 | 16.5 | 0.00 | 0.00 | 0.00 | 42 | 1005.5 |
| 20260504180811 | 63 | 271 | 6.1 | 10.4 | 0.00 | 0.00 | 0.00 | 42 | 1005.6 |
| 20260504180326 | 63 | 278 | 2.6 | 11.3 | 0.00 | 0.00 | 0.00 | 42 | 1005.5 |
| 20260504175820 | 63 | 242 | 6.1 | 11.3 | 0.00 | 0.00 | 0.00 | 41 | 1005.5 |
| 20260504175336 | 63 | 277 | 4.3 | 14.8 | 0.00 | 0.00 | 0.00 | 41 | 1005.5 |
| 20260504174810 | 63 | 273 | 7.8 | 15.6 | 0.00 | 0.00 | 0.00 | 41 | 1005.4 |
| 20260504174324 | 63 | 257 | 4.3 | 15.6 | 0.00 | 0.00 | 0.00 | 40 | 1005.4 |
| 20260504173816 | 64 | 278 | 7.8 | 14.8 | 0.00 | 0.00 | 0.00 | 39 | 1005.4 |
| 20260504173310 | 64 | 228 | 4.3 | 11.3 | 0.00 | 0.00 | 0.00 | 40 | 1005.4 |
| 20260504172821 | 64 | 260 | 3.5 | 10.4 | 0.00 | 0.00 | 0.00 | 40 | 1005.4 |
| 20260504172351 | 64 | 273 | 3.5 | 10.4 | 0.00 | 0.00 | 0.00 | 40 | 1005.4 |
| 20260504171820 | 64 | 249 | 4.3 | 11.3 | 0.00 | 0.00 | 0.00 | 39 | 1005.4 |
| 20260504171313 | 64 | 227 | 3.5 | 14.8 | 0.00 | 0.00 | 0.00 | 39 | 1005.5 |
| 20260504170827 | 64 | 262 | 7.0 | 15.6 | 0.00 | 0.00 | 0.00 | 38 | 1005.4 |
| 20260504160323 | 65 | 273 | 6.1 | 17.4 | 0.00 | 0.00 | 0.00 | 37 | 1005.2 |
| 20260504150816 | 62 | 247 | 8.7 | 21.7 | 0.00 | 0.00 | 0.00 | 41 | 1006.0 |
| 20260504150328 | 61 | 223 | 9.6 | 18.2 | 0.00 | 0.00 | 0.00 | 42 | 1005.9 |
| 20260504141322 | 58 | 228 | 7.0 | 13.9 | 0.00 | 0.00 | 0.00 | 49 | 1006.6 |
| 20260504140818 | 57 | 237 | 6.1 | 12.2 | 0.00 | 0.00 | 0.00 | 50 | 1006.6 |
| 20260504140312 | 57 | 251 | 4.3 | 12.2 | 0.00 | 0.00 | 0.00 | 52 | 1006.7 |
| 20260504130821 | 53 | 233 | 5.2 | 9.6 | 0.00 | 0.00 | 0.00 | 59 | 1007.3 |
| 20260504130316 | 53 | 232 | 2.6 | 8.7 | 0.00 | 0.00 | 0.00 | 60 | 1007.4 |
| 20260504110326 | 46 | 230 | 5.2 | 10.4 | 0.00 | 0.00 | 0.00 | 66 | 1008.1 |
| 20260504100312 | 44 | 274 | 2.6 | 6.1 | 0.00 | 0.00 | 0.00 | 66 | 1007.9 |
| 20260504081845 | 44 | 258 | 1.7 | 7.0 | 0.00 | 0.00 | 0.00 | 59 | 1007.9 |
| 20260504081322 | 44 | 262 | 0.9 | 7.0 | 0.00 | 0.00 | 0.00 | 58 | 1007.9 |
| 20260504080817 | 44 | 277 | 3.5 | 10.4 | 0.00 | 0.00 | 0.00 | 58 | 1007.8 |
| 20260504080312 | 44 | 267 | 3.5 | 10.4 | 0.00 | 0.00 | 0.00 | 57 | 1008.0 |
| 20260504070320 | 41 | 259 | 0.9 | 3.5 | 0.00 | 0.00 | 0.00 | 61 | 1007.7 |
| 20260504050314 | 42 | 228 | 3.5 | 8.7 | 0.00 | 0.02 | 0.00 | 60 | 1007.7 |
| 20260504045850 | 42 | 244 | 4.3 | 8.7 | 0.00 | 0.02 | 0.00 | 60 | 1007.7 |
| 20260504045345 | 42 | 228 | 5.2 | 7.8 | 0.00 | 0.02 | 0.00 | 60 | 1007.7 |
| 20260504044824 | 41 | 239 | 3.5 | 7.0 | 0.00 | 0.02 | 0.00 | 61 | 1007.7 |
| 20260504044319 | 41 | 242 | 2.6 | 6.1 | 0.00 | 0.02 | 0.00 | 61 | 1007.8 |
| 20260504043814 | 41 | 270 | 2.6 | 6.1 | 0.00 | 0.02 | 0.00 | 61 | 1007.8 |
| 20260504043330 | 41 | 242 | 2.6 | 6.1 | 0.00 | 0.02 | 0.00 | 61 | 1007.7 |
| 20260504042826 | 41 | 281 | 2.6 | 7.0 | 0.00 | 0.02 | 0.00 | 62 | 1007.7 |
| 20260504042321 | 41 | 243 | 2.6 | 7.0 | 0.00 | 0.03 | 0.00 | 63 | 1007.6 |
| 20260504041817 | 41 | 248 | 3.5 | 6.1 | 0.00 | 0.03 | 0.00 | 63 | 1007.6 |
| 20260504041316 | 40 | 233 | 2.6 | 6.1 | 0.00 | 0.03 | 0.00 | 66 | 1007.6 |
| 20260504040812 | 40 | 228 | 2.6 | 6.1 | 0.00 | 0.03 | 0.00 | 67 | 1007.5 |
| 20260504040327 | 40 | 228 | 2.6 | 6.1 | 0.00 | 0.03 | 0.00 | 67 | 1007.4 |
| 20260504035823 | 40 | 228 | 2.6 | 9.6 | 0.00 | 0.03 | 0.00 | 68 | 1007.4 |
| 20260504035339 | 39 | 239 | 3.5 | 9.6 | 0.00 | 0.03 | 0.00 | 68 | 1007.5 |
| 20260504034815 | 39 | 230 | 1.7 | 4.3 | 0.00 | 0.03 | 0.00 | 71 | 1007.4 |
| 20260504034351 | 39 | 235 | 1.7 | 5.2 | 0.00 | 0.03 | 0.00 | 70 | 1007.4 |
| 20260504033825 | 40 | 224 | 2.6 | 6.1 | 0.00 | 0.03 | 0.00 | 65 | 1007.5 |
| 20260504033324 | 41 | 226 | 2.6 | 6.1 | 0.00 | 0.03 | 0.00 | 65 | 1007.5 |
| 20260504032820 | 41 | 247 | 2.6 | 5.2 | 0.00 | 0.03 | 0.00 | 65 | 1007.4 |
| 20260504032315 | 41 | 234 | 1.7 | 4.3 | 0.00 | 0.03 | 0.03 | 66 | 1007.4 |
| 20260504031810 | 42 | 249 | 2.6 | 7.8 | 0.00 | 0.03 | 0.03 | 62 | 1007.4 |
| 20260504031345 | 43 | 268 | 0.9 | 7.0 | 0.00 | 0.03 | 0.03 | 61 | 1007.3 |
| 20260504030820 | 43 | 282 | 2.6 | 7.0 | 0.00 | 0.03 | 0.03 | 58 | 1007.3 |
| 20260504030315 | 43 | 273 | 1.7 | 5.2 | 0.00 | 0.03 | 0.03 | 58 | 1007.3 |
| 20260504025851 | 43 | 243 | 2.6 | 9.6 | 0.00 | 0.03 | 0.03 | 59 | 1007.4 |
| 20260504025326 | 43 | 268 | 3.5 | 10.4 | 0.00 | 0.03 | 0.03 | 59 | 1007.4 |
| 20260504024824 | 42 | 253 | 4.3 | 10.4 | 0.00 | 0.03 | 0.03 | 61 | 1007.4 |
| 20260504024320 | 42 | 267 | 3.5 | 7.0 | 0.00 | 0.03 | 0.03 | 62 | 1007.5 |
| 20260504023815 | 42 | 267 | 3.5 | 5.2 | 0.00 | 0.03 | 0.03 | 62 | 1007.4 |
| 20260504023310 | 41 | 254 | 1.7 | 3.5 | 0.00 | 0.03 | 0.03 | 63 | 1007.4 |
| 20260504022845 | 42 | 235 | 0.9 | 4.3 | 0.00 | 0.03 | 0.03 | 63 | 1007.4 |
| 20260504022319 | 42 | 269 | 2.6 | 5.2 | 0.00 | 0.03 | 0.03 | 61 | 1007.5 |
| 20260504021814 | 42 | 268 | 2.6 | 5.2 | 0.00 | 0.03 | 0.03 | 63 | 1007.5 |
| 20260504021313 | 42 | 249 | 0.9 | 3.5 | 0.00 | 0.03 | 0.03 | 63 | 1007.5 |
| 20260504020829 | 42 | 249 | 0.9 | 2.6 | 0.00 | 0.03 | 0.03 | 61 | 1007.4 |
| 20260504020325 | 43 | 249 | 0.9 | 2.6 | 0.00 | 0.03 | 0.03 | 60 | 1007.4 |
| 20260504015819 | 43 | 239 | 0.9 | 4.3 | 0.00 | 0.03 | 0.03 | 59 | 1007.5 |
| 20260504015314 | 44 | 253 | 1.7 | 6.1 | 0.00 | 0.03 | 0.03 | 57 | 1007.5 |
| 20260504014829 | 44 | 244 | 2.6 | 6.1 | 0.00 | 0.03 | 0.03 | 56 | 1007.5 |
| 20260504014344 | 44 | 247 | 3.5 | 5.2 | 0.00 | 0.03 | 0.03 | 55 | 1007.5 |
| 20260504013838 | 44 | 267 | 2.6 | 7.8 | 0.00 | 0.03 | 0.03 | 55 | 1007.5 |
| 20260504013332 | 45 | 242 | 2.6 | 7.8 | 0.00 | 0.03 | 0.03 | 54 | 1007.5 |
| 20260504012825 | 45 | 214 | 2.6 | 7.0 | 0.00 | 0.03 | 0.03 | 53 | 1007.4 |
| 20260504012323 | 45 | 242 | 3.5 | 7.0 | 0.00 | 0.04 | 0.03 | 53 | 1007.5 |
| 20260504011818 | 45 | 253 | 2.6 | 7.0 | 0.00 | 0.04 | 0.03 | 53 | 1007.5 |
| 20260504011312 | 45 | 265 | 3.5 | 7.8 | 0.00 | 0.04 | 0.03 | 53 | 1007.4 |
| 20260504010827 | 45 | 274 | 4.3 | 11.3 | 0.00 | 0.04 | 0.03 | 53 | 1007.3 |
| 20260504010321 | 45 | 275 | 5.2 | 11.3 | 0.00 | 0.04 | 0.03 | 54 | 1007.3 |
| 20260504005815 | 45 | 254 | 2.6 | 7.8 | 0.00 | 0.04 | 0.03 | 54 | 1007.2 |
| 20260504005329 | 44 | 255 | 3.5 | 7.8 | 0.00 | 0.04 | 0.03 | 54 | 1007.1 |
| 20260504004827 | 44 | 261 | 2.6 | 4.3 | 0.00 | 0.04 | 0.03 | 54 | 1007.1 |
| 20260504004342 | 44 | 271 | 0.9 | 3.5 | 0.00 | 0.04 | 0.03 | 54 | 1007.0 |
| 20260504003815 | 45 | 271 | 1.7 | 5.2 | 0.00 | 0.04 | 0.03 | 54 | 1006.9 |
| 20260504003328 | 45 | 261 | 2.6 | 6.1 | 0.00 | 0.04 | 0.03 | 53 | 1006.9 |
| 20260504002822 | 45 | 276 | 2.6 | 7.8 | 0.00 | 0.04 | 0.03 | 54 | 1006.9 |
| 20260504002337 | 45 | 261 | 1.7 | 7.8 | 0.00 | 0.05 | 0.03 | 54 | 1006.8 |
| 20260504001810 | 45 | 292 | 2.6 | 6.1 | 0.00 | 0.05 | 0.03 | 55 | 1006.8 |
| 20260504001325 | 45 | 246 | 2.6 | 4.3 | 0.00 | 0.05 | 0.03 | 55 | 1006.8 |
| 20260504000821 | 45 | 254 | 1.7 | 4.3 | 0.00 | 0.05 | 0.03 | 54 | 1006.7 |
| 20260504000320 | 45 | 259 | 0.9 | 2.6 | 0.00 | 0.05 | 0.03 | 55 | 1006.6 |
| 20260503235814 | 46 | 277 | 0.9 | 6.1 | 0.00 | 0.05 | 0.03 | 53 | 1006.5 |
| 20260503235350 | 46 | 261 | 1.7 | 4.3 | 0.00 | 0.05 | 0.03 | 52 | 1006.4 |
| 20260503234824 | 46 | 231 | 1.7 | 4.3 | 0.00 | 0.05 | 0.03 | 52 | 1006.4 |
| 20260503234339 | 46 | 270 | 1.7 | 6.1 | 0.00 | 0.05 | 0.03 | 51 | 1006.3 |
| 20260503233813 | 46 | 273 | 1.7 | 6.1 | 0.00 | 0.05 | 0.03 | 51 | 1006.2 |
| 20260503233347 | 47 | 247 | 0.9 | 7.8 | 0.00 | 0.05 | 0.03 | 50 | 1006.2 |
| 20260503232821 | 47 | 281 | 1.7 | 7.8 | 0.00 | 0.05 | 0.03 | 49 | 1006.2 |
| 20260503232316 | 47 | 274 | 2.6 | 6.1 | 0.00 | 0.06 | 0.03 | 49 | 1006.2 |
| 20260503231835 | 48 | 261 | 0.9 | 6.1 | 0.00 | 0.06 | 0.03 | 49 | 1006.2 |
| 20260503231329 | 48 | 271 | 1.7 | 5.2 | 0.00 | 0.06 | 0.03 | 48 | 1006.1 |
| 20260503230824 | 48 | 242 | 1.7 | 9.6 | 0.00 | 0.06 | 0.03 | 47 | 1006.1 |
| 20260503230339 | 48 | 264 | 5.2 | 13.0 | 0.00 | 0.06 | 0.03 | 46 | 1006.0 |
| 20260503225833 | 49 | 249 | 2.6 | 11.3 | 0.00 | 0.06 | 0.03 | 46 | 1006.0 |
| 20260503225326 | 49 | 295 | 3.5 | 11.3 | 0.00 | 0.06 | 0.03 | 46 | 1005.9 |
| 20260503224821 | 49 | 7 | 2.6 | 12.2 | 0.00 | 0.06 | 0.03 | 45 | 1005.9 |
| 20260503224316 | 49 | 302 | 4.3 | 12.2 | 0.00 | 0.06 | 0.03 | 45 | 1005.9 |
| 20260503223830 | 49 | 360 | 5.2 | 12.2 | 0.00 | 0.06 | 0.03 | 44 | 1005.8 |
| 20260503223329 | 50 | 312 | 4.3 | 8.7 | 0.00 | 0.06 | 0.03 | 44 | 1005.8 |
| 20260503222824 | 50 | 216 | 3.5 | 9.6 | 0.00 | 0.06 | 0.03 | 45 | 1005.7 |
| 20260503222320 | 50 | 55 | 4.3 | 13.0 | 0.00 | 0.06 | 0.03 | 44 | 1005.7 |
| 20260503221833 | 50 | 302 | 4.3 | 10.4 | 0.00 | 0.06 | 0.03 | 45 | 1005.7 |
| 20260503221326 | 50 | 282 | 2.6 | 8.7 | 0.00 | 0.06 | 0.03 | 46 | 1005.7 |
| 20260503220841 | 50 | 351 | 3.5 | 14.8 | 0.00 | 0.06 | 0.03 | 45 | 1005.7 |
| 20260503220315 | 50 | 296 | 6.1 | 14.8 | 0.00 | 0.06 | 0.03 | 45 | 1005.6 |
| 20260503215830 | 50 | 277 | 5.2 | 13.0 | 0.00 | 0.06 | 0.03 | 44 | 1005.5 |
| 20260503215324 | 50 | 13 | 5.2 | 14.8 | 0.00 | 0.06 | 0.03 | 44 | 1005.4 |